TimeCDT,TemperatureF,Dew PointF,Humidity,Sea Level PressureIn,VisibilityMPH,Wind Direction,Wind SpeedMPH,Gust SpeedMPH,PrecipitationIn,Events,Conditions,WindDirDegrees,DateUTC
12:15 AM,48.6,41.7,77,30.11,10.0,SSE,3.5,-,N/A,,Clear,160,2013-09-14 05:15:00
12:35 AM,49.1,42.1,77,30.10,10.0,SSE,4.6,-,N/A,,Clear,150,2013-09-14 05:35:00
12:55 AM,49.3,42.1,76,30.10,10.0,South,4.6,-,N/A,,Clear,170,2013-09-14 05:55:00
1:15 AM,50.0,41.9,74,30.10,10.0,South,4.6,-,N/A,,Clear,180,2013-09-14 06:15:00
1:35 AM,51.3,42.3,71,30.10,10.0,South,5.8,-,N/A,,Clear,180,2013-09-14 06:35:00
1:55 AM,50.2,42.1,74,30.10,10.0,SSW,4.6,-,N/A,,Clear,200,2013-09-14 06:55:00
2:15 AM,48.2,41.4,77,30.10,10.0,South,3.5,-,N/A,,Clear,180,2013-09-14 07:15:00
2:35 AM,46.4,40.5,80,30.10,10.0,Calm,Calm,-,N/A,,Clear,0,2013-09-14 07:35:00
2:55 AM,45.7,40.5,82,30.10,10.0,Calm,Calm,-,N/A,,Clear,0,2013-09-14 07:55:00
3:15 AM,43.9,39.6,85,30.10,10.0,Calm,Calm,-,N/A,,Clear,0,2013-09-14 08:15:00
3:35 AM,43.9,40.1,87,30.10,10.0,Calm,Calm,-,N/A,,Clear,0,2013-09-14 08:35:00
3:55 AM,45.0,40.8,85,30.09,10.0,SSE,3.5,-,N/A,,Clear,160,2013-09-14 08:55:00
4:15 AM,46.8,41.9,83,30.08,10.0,South,5.8,-,N/A,,Clear,170,2013-09-14 09:15:00
4:35 AM,47.8,42.1,80,30.08,10.0,SSE,4.6,-,N/A,,Clear,160,2013-09-14 09:35:00
4:55 AM,47.5,41.9,81,30.08,10.0,South,3.5,-,N/A,,Clear,170,2013-09-14 09:55:00
5:15 AM,48.4,42.1,79,30.09,10.0,South,5.8,-,N/A,,Clear,180,2013-09-14 10:15:00
5:35 AM,47.3,41.4,80,30.09,10.0,South,4.6,-,N/A,,Clear,180,2013-09-14 10:35:00
5:55 AM,46.8,41.2,81,30.09,10.0,SSE,3.5,-,N/A,,Clear,160,2013-09-14 10:55:00
6:15 AM,45.1,40.5,84,30.09,10.0,SSE,3.5,-,N/A,,Clear,160,2013-09-14 11:15:00
6:35 AM,46.0,41.0,83,30.09,10.0,SSE,4.6,-,N/A,,Clear,160,2013-09-14 11:35:00
6:55 AM,46.9,41.4,81,30.09,10.0,South,4.6,-,N/A,,Clear,170,2013-09-14 11:55:00
7:15 AM,47.3,41.4,80,30.09,10.0,South,3.5,-,N/A,,Clear,170,2013-09-14 12:15:00
7:35 AM,48.6,42.1,78,30.08,10.0,South,5.8,-,N/A,,Clear,180,2013-09-14 12:35:00
7:55 AM,50.9,42.1,72,30.08,10.0,South,5.8,-,N/A,,Clear,180,2013-09-14 12:55:00
8:15 AM,50.9,42.1,72,30.08,10.0,South,5.8,-,N/A,,Clear,180,2013-09-14 13:15:00
8:35 AM,54.0,43.2,67,30.07,10.0,South,5.8,-,N/A,,Clear,190,2013-09-14 13:35:00
8:55 AM,56.8,43.3,61,30.07,10.0,SSW,9.2,-,N/A,,Clear,200,2013-09-14 13:55:00
9:15 AM,59.4,42.4,54,30.06,10.0,SSW,11.5,16.1,N/A,,Clear,210,2013-09-14 14:15:00
9:35 AM,61.0,42.1,50,30.06,10.0,SSW,10.4,17.3,N/A,,Clear,210,2013-09-14 14:35:00
9:55 AM,63.5,41.7,45,30.06,10.0,SW,13.8,18.4,N/A,,Clear,220,2013-09-14 14:55:00
10:15 AM,64.6,41.2,42,30.05,10.0,SW,10.4,-,N/A,,Clear,220,2013-09-14 15:15:00
10:35 AM,66.2,41.7,41,30.04,10.0,SSW,11.5,-,N/A,,Clear,210,2013-09-14 15:35:00
10:55 AM,66.4,41.9,41,30.04,10.0,South,6.9,17.3,N/A,,Clear,190,2013-09-14 15:55:00
11:15 AM,68.7,41.4,37,30.03,10.0,SSW,11.5,-,N/A,,Clear,210,2013-09-14 16:15:00
11:35 AM,69.4,41.7,37,30.02,10.0,SSW,10.4,-,N/A,,Clear,210,2013-09-14 16:35:00
11:55 AM,70.0,41.5,36,30.02,10.0,WSW,11.5,-,N/A,,Clear,240,2013-09-14 16:55:00
12:15 PM,70.9,41.9,35,30.01,10.0,WSW,13.8,18.4,N/A,,Clear,240,2013-09-14 17:15:00
12:35 PM,70.9,41.9,35,30.01,10.0,SW,10.4,18.4,N/A,,Clear,220,2013-09-14 17:35:00
12:55 PM,70.5,41.7,35,30.00,10.0,SW,13.8,18.4,N/A,,Clear,220,2013-09-14 17:55:00
1:15 PM,70.9,41.5,35,29.99,10.0,SW,8.1,-,N/A,,Clear,220,2013-09-14 18:15:00
1:35 PM,73.2,41.9,32,29.98,10.0,SSW,9.2,17.3,N/A,,Clear,210,2013-09-14 18:35:00
1:55 PM,72.3,42.1,34,29.98,10.0,SW,9.2,-,N/A,,Clear,220,2013-09-14 18:55:00
2:15 PM,71.1,42.4,36,29.97,10.0,SSW,11.5,17.3,N/A,,Clear,200,2013-09-14 19:15:00
2:35 PM,70.2,42.4,37,29.96,10.0,SSW,10.4,-,N/A,,Clear,200,2013-09-14 19:35:00
2:55 PM,70.7,43.3,37,29.97,10.0,SW,10.4,-,N/A,,Clear,220,2013-09-14 19:55:00
3:15 PM,71.6,43.3,36,29.96,10.0,SSW,13.8,-,N/A,,Clear,210,2013-09-14 20:15:00
3:35 PM,70.5,42.3,36,29.96,10.0,SSW,11.5,-,N/A,,Clear,210,2013-09-14 20:35:00
3:55 PM,70.7,43.0,37,29.95,10.0,SW,9.2,-,N/A,,Scattered Clouds,220,2013-09-14 20:55:00
4:15 PM,70.7,43.5,37,29.95,10.0,SW,10.4,16.1,N/A,,Clear,230,2013-09-14 21:15:00
4:35 PM,70.0,43.3,38,29.95,10.0,SW,10.4,-,N/A,,Scattered Clouds,230,2013-09-14 21:35:00
4:55 PM,69.4,43.5,39,29.95,10.0,SW,6.9,-,N/A,Rain,Light Rain,230,2013-09-14 21:55:00
5:15 PM,64.8,52.0,63,29.96,10.0,WSW,4.6,-,N/A,Rain,Light Rain,240,2013-09-14 22:15:00
5:35 PM,62.8,53.2,71,29.95,7.0,Calm,Calm,-,0.02,Rain,Light Rain,0,2013-09-14 22:35:00
5:55 PM,61.2,55.4,81,29.94,10.0,Calm,Calm,-,0.03,Rain,Light Rain,0,2013-09-14 22:55:00
6:15 PM,60.3,54.7,82,29.93,10.0,Calm,Calm,-,N/A,Rain,Light Rain,0,2013-09-14 23:15:00
6:35 PM,60.8,55.9,84,29.93,10.0,East,3.5,-,0.01,Rain,Light Rain,80,2013-09-14 23:35:00
6:55 PM,59.5,56.3,89,29.93,7.0,East,3.5,-,0.02,Rain,Rain,100,2013-09-14 23:55:00
7:15 PM,59.4,57.0,92,29.95,7.0,Calm,Calm,-,0.02,Rain,Rain,0,2013-09-15 00:15:00
7:35 PM,59.0,57.9,96,29.97,7.0,NNW,6.9,-,0.05,Rain,Rain,340,2013-09-15 00:35:00
7:55 PM,58.1,56.3,94,29.98,5.0,Calm,Calm,-,0.11,Rain,Rain,0,2013-09-15 00:55:00
8:15 PM,57.4,56.3,96,30.00,7.0,WSW,5.8,-,0.05,Rain,Rain,250,2013-09-15 01:15:00
8:35 PM,55.8,54.5,96,29.98,4.0,Calm,Calm,-,0.11,Rain,Rain,0,2013-09-15 01:35:00
8:55 PM,55.9,55.4,98,29.99,5.0,ESE,3.5,-,0.17,Rain,Rain,110,2013-09-15 01:55:00
9:15 PM,55.4,54.1,96,29.99,7.0,Calm,Calm,-,0.06,Rain,Rain,0,2013-09-15 02:15:00
9:35 PM,55.0,54.1,97,29.98,10.0,ESE,3.5,-,0.08,Rain,Rain,110,2013-09-15 02:35:00
9:55 PM,54.9,54.1,97,29.97,10.0,Calm,Calm,-,0.08,Rain,Rain,0,2013-09-15 02:55:00
10:15 PM,54.9,54.5,99,29.97,10.0,ESE,4.6,-,N/A,,Light Drizzle,110,2013-09-15 03:15:00
10:35 PM,55.0,54.7,99,29.96,10.0,ESE,5.8,-,N/A,Rain,Rain,110,2013-09-15 03:35:00
10:55 PM,55.0,54.7,99,29.95,10.0,ESE,5.8,-,0.01,,Overcast,120,2013-09-15 03:55:00
11:15 PM,55.4,54.9,98,29.95,10.0,SE,4.6,-,N/A,,Overcast,130,2013-09-15 04:15:00
11:35 PM,55.4,54.9,98,29.95,10.0,SE,5.8,-,N/A,,Light Drizzle,130,2013-09-15 04:35:00
11:55 PM,55.4,54.7,97,29.95,7.0,SE,6.9,-,N/A,,Light Drizzle,130,2013-09-15 04:55:00